Station 41009 (LLNR 840) - CANAVERAL 20 NM East of Cape Canaveral, FL Image indicating link to RSS feed of recent meteorological observations for station 41009


Conditions at 41009 as of
(11:00 am EDT)
1500 GMT on 07/23/2024:
     

Click on the graph icon in the table below to see a time series plot of the last five days of that observation.

5-day plot - Wind Direction Wind Direction (WDIR): S ( 180 deg true )
5-day plot - Wind Speed Wind Speed (WSPD): 5.8 kts
5-day plot - Wind Gust Wind Gust (GST): 7.8 kts
5-day plot - Atmospheric Pressure Atmospheric Pressure (PRES):30.16 in
5-day plot - Pressure Tendency Pressure Tendency (PTDY):+0.00 in ( Steady )
5-day plot - Air Temperature Air Temperature (ATMP): 82.0 °F
5-day plot - Water Temperature Water Temperature (WTMP): 83.3 °F
5-day plot - Dew Point Dew Point (DEWP): 76.5 °F
5-day plot - Heat Index Heat Index (HEAT): 90.0 °F
5-day plot - Wind Speed at 10 Meters Wind Speed at 10 meters (WSPD10M): 7.8 kts
5-day plot - Wind Speed at 20 Meters Wind Speed at 20 meters (WSPD20M): 7.8 kts
5-day plot -  Wind Speed, Wind Gust and Atmospheric Pressure Combined plot of Wind Speed, Gust, and Air Pressure
Supplemental Measurements
Highest 1-minute Wind Speed
Time (EDT)5-day plot - 1-Minute Wind Speed WSPD 5-day plot - 1-Minute Wind Direction WDIR
10:57 am 5.8 kts-
Previous observations
TIME
(EDT)
5-day plot - Wind Direction
WDIR
 
5-day plot - Wind Speed
WSPD
kts
5-day plot - Wind Gust
GST
kts
5-day plot - Wave Height
WVHT
ft
5-day plot - Dominant Wave Period
DPD
sec
5-day plot - Average Wave Period
APD
sec
5-day plot - Mean Wave Direction
MWD
 
5-day plot - Atmospheric Pressure
PRES
in
5-day plot - Pressure Tendency
PTDY
in
5-day plot - Air Temperature
ATMP
°F
5-day plot - Water Temperature
WTMP
°F
5-day plot - Dew Point
DEWP
°F
5-day plot - Salinity
SAL
psu
5-day plot - Visibility
VIS
nmi
5-day plot - Tide (above MLLW)
TIDE
ft
2024-07-23 10:50 am S 5.8 7.8 2.6 96.0 E30.16- 82.0 83.3 76.6---
2024-07-23 10:40 am S 7.8 7.8----30.16- 81.9 83.3 76.5---
2024-07-23 10:30 am S 7.8 9.7----30.16- 81.5 83.3 76.5---
2024-07-23 10:20 am S 7.8 9.7 2.3 95.8 E30.16- 81.5 83.3 76.8---
2024-07-23 10:10 am S 7.8 9.7 2.3-5.8 E30.16- 81.5 83.3 77.0---
2024-07-23 10:00 am S 7.8 9.7----30.16+0.03 81.3 83.1 76.8---
2024-07-23 09:50 amSSW 7.8 9.7 2.3 95.3 E30.16- 81.3 83.1 77.0---
2024-07-23 09:40 am S 7.8 9.7----30.16- 81.3 83.1 77.2---
2024-07-23 09:30 am S 7.8 7.8----30.16- 81.3 83.1 77.0---
2024-07-23 09:20 amSSW 7.8 9.7 2.6 95.6 E30.16- 81.3 83.1 77.0---
2024-07-23 09:10 amSSW 5.8 7.8 2.6-5.6 E30.16- 81.1 83.1 76.6---
2024-07-23 09:00 amSSW 7.8 7.8----30.16+0.04 81.0 83.1 76.6---
2024-07-23 08:50 amSSW 7.8 9.7 2.3 95.2 E30.16- 81.0 83.1 76.8---
2024-07-23 08:40 amSSW 7.8 9.7----30.16- 81.0 83.1 77.0---
2024-07-23 08:30 amSSW 7.8 9.7----30.16- 81.0 83.1 77.2---
2024-07-23 08:20 amSSW 5.8 7.8 2.3 94.9ENE30.16- 81.1 83.1 77.2---
2024-07-23 08:10 amSSW 5.8 7.8 2.3-4.9ENE30.16- 81.0 83.3 77.0---
2024-07-23 08:00 amSSW 5.8 7.8----30.16+0.07 81.0 83.3 77.2---
2024-07-23 07:50 amSSW 7.8 9.7 2.6 95.0 E30.15- 80.8- 76.8---
2024-07-23 07:40 amSSW 7.8 9.7----30.14- 81.0 83.3 77.0---
2024-07-23 07:30 amSSW 7.8 9.7----30.14- 81.0 83.3 76.8---
2024-07-23 07:20 amSSW 7.8 9.7 2.3 94.9 E30.13- 80.8 83.3 76.3---
2024-07-23 07:10 amSSW 7.8 9.7 2.3-4.9 E30.13- 80.8 83.3 75.9---
2024-07-23 07:00 amSSW 7.8 9.7----30.13+0.04 81.0 83.5 75.7---
2024-07-23 06:50 am SW 7.8 9.7 2.3 94.6 E30.13- 81.0 83.3 75.6---
2024-07-23 06:40 am SW 5.8 7.8----30.13- 80.8 83.3 75.2---
2024-07-23 06:30 am SW 7.8 7.8----30.13- 81.0 83.3 75.2---
2024-07-23 06:20 am SW 7.8 7.8 2.6 94.9ENE30.13- 80.8 83.5 75.0---
2024-07-23 06:10 am SW 7.8 9.7 2.6-4.9ENE30.12- 80.8 83.3 74.8---
2024-07-23 06:00 am SW 7.8 9.7----30.12+0.04 80.8 83.5 75.2---
2024-07-23 05:50 am SW 7.8 9.7 2.6 94.6 E30.11- 81.0 83.5 75.4---
2024-07-23 05:40 amSSW 7.8 9.7----30.11- 80.8 83.5 75.0---
2024-07-23 05:30 am SW 7.8 9.7----30.10- 80.8 83.5 75.0---
2024-07-23 05:20 am--- 2.6 84.8 E30.09-- 83.7----
2024-07-23 05:10 am SW 7.8 11.7 2.6-4.8 E30.09- 80.8 83.7 75.0---
2024-07-23 05:00 am SW 7.8 9.7----30.09+0.00 80.8 83.7 75.0---
2024-07-23 04:50 am SW 7.8 11.7 3.0 94.9 E30.08- 80.8 83.7 74.7---
2024-07-23 04:40 amWSW 9.7 11.7----30.08- 80.8 83.7 75.0---
2024-07-23 04:30 amWSW 9.7 11.7----30.08- 80.6 83.7 75.0---
2024-07-23 04:20 amWSW 9.7 11.7 2.3 94.7 E30.08- 80.6 83.7 75.4---
2024-07-23 04:10 amWSW 9.7 11.7 2.3-4.7 E30.08- 80.6 83.7 75.2---
2024-07-23 04:00 amWSW 9.7 13.6----30.08+0.00 80.6 83.7 75.2---
2024-07-23 03:50 amWSW 11.7 13.6 2.6 94.9 E30.08- 80.8 83.7 75.4---
2024-07-23 03:40 amWSW 11.7 13.6----30.08- 80.8 83.7 74.7---
2024-07-23 03:30 am SW 9.7 13.6----30.08- 80.8 83.8 74.7---
2024-07-23 03:20 am SW 9.7 11.7 2.6 94.7 E30.08- 81.0 83.8 74.8---
2024-07-23 03:10 am SW 11.7 13.6 2.6-4.7 E30.08- 80.8 83.8 74.7---
2024-07-23 03:00 am SW 11.7 13.6----30.08+0.00 80.6 84.0 75.7---
2024-07-23 02:50 am SW 11.7 13.6 2.3 84.5 E30.08- 81.1 84.0 76.3---
2024-07-23 02:40 am SW 11.7 13.6----30.08- 81.1 84.0 76.1---
2024-07-23 02:30 am SW 11.7 15.5----30.08- 81.1 84.0 75.9---
2024-07-23 02:20 amSSW 13.6 15.5 2.6 94.8 E30.09- 81.1 84.0 76.1---
2024-07-23 02:10 amSSW 13.6 15.5 2.6-4.8 E30.09- 81.3 84.0 76.5---
2024-07-23 02:00 amSSW 11.7 15.5----30.09+0.01 81.3 84.0 76.3---
2024-07-23 01:50 amSSW 11.7 13.6 2.6 95.0 E30.09- 81.1 84.2 76.1---
2024-07-23 01:40 amSSW 11.7 13.6----30.09- 81.1 84.2 76.8---
2024-07-23 01:30 amSSW 11.7 15.5----30.09- 81.1 84.2 77.2---
2024-07-23 01:20 amSSW 11.7 15.5 2.6 105.5 E30.09- 81.3 84.2 77.7---
2024-07-23 01:10 amSSW 11.7 15.5 2.6-5.5 E30.08- 81.5 84.2 78.1---
2024-07-23 01:00 am S 11.7 13.6----30.08+0.01 81.9 84.2 78.3---
2024-07-23 12:50 am S 9.7 11.7 2.6 95.5 E30.08- 82.2 84.2 78.3---
2024-07-23 12:40 amSSW 9.7 11.7----30.07- 82.2 84.2 77.5---
2024-07-23 12:30 amSSW 9.7 11.7----30.07- 82.4 84.2 77.4---
2024-07-23 12:20 amSSW 9.7 11.7 2.3 95.3 E30.08- 82.2 84.4 77.2---
2024-07-23 12:10 amSSW 9.7 11.7 2.3-5.3 E30.07- 82.4 84.4 78.1---
2024-07-23 12:00 amSSW 7.8 9.7----30.07+0.01 82.6 84.4 78.6---
2024-07-22 11:50 pmSSW 5.8 7.8 2.6 95.4 E30.07- 82.8- 79.0---
2024-07-22 11:40 pm S 5.8 7.8----30.07- 82.9 84.6 79.0---
2024-07-22 11:30 pm S 3.9 5.8----30.07- 82.9 84.6 78.4---
2024-07-22 11:20 pm S 3.9 5.8 2.3 85.1ENE30.07- 82.9 84.6 78.1---
2024-07-22 11:10 pm S 3.9 5.8 2.3-5.1ENE30.07- 82.9 84.6 77.7---
2024-07-22 11:00 pm S 5.8 5.8----30.07+0.03 82.9 84.6 77.7---
2024-07-22 10:50 pm S 5.8 7.8 2.3 85.2 E30.07- 82.9 84.6 77.7---
2024-07-22 10:40 pm S 5.8 7.8----30.07- 83.1 84.6 77.7---
2024-07-22 10:30 pm S 7.8 7.8----30.07- 82.9 84.6 77.4---
2024-07-22 10:20 pm S 5.8 7.8 2.3 95.0ENE30.08- 83.1 84.6 77.7---
2024-07-22 10:10 pm S 5.8 7.8----30.08- 83.3 84.6 77.9---
2024-07-22 10:00 pm S 7.8 9.7----30.07+0.04 83.1 84.7 77.5---
2024-07-22 09:50 pm S 7.8 9.7 2.3 95.0ENE30.06- 83.5 84.7 78.1---
2024-07-22 09:40 pm S 7.8 9.7----30.06- 83.7 84.6 78.1---
2024-07-22 09:30 pm S 7.8 9.7----30.07- 83.7 84.6 77.9---
2024-07-22 09:20 pm S 9.7 11.7 2.3 95.1ENE30.07- 83.5 84.6 77.7---
2024-07-22 09:10 pm S 9.7 11.7 2.3-5.1ENE30.07- 83.5 84.6 78.1---
2024-07-22 09:00 pm S 9.7 11.7----30.06+0.02 83.5 84.6 78.3---
2024-07-22 08:50 pm S 9.7 13.6 2.6 95.7 E30.07- 83.7 84.6 78.4---
2024-07-22 08:40 pm S 9.7 13.6----30.06- 83.7 84.6 78.4---
2024-07-22 08:30 pm S 9.7 11.7----30.06- 83.3 84.6 78.1---
2024-07-22 08:20 pm S 9.7 11.7 2.3 95.6ENE30.05- 83.1 84.4 78.6---
2024-07-22 08:10 pm S 9.7 11.7 2.3-5.6ENE30.05- 83.7 84.4 79.5---
2024-07-22 08:00 pm S 9.7 11.7----30.04+0.00 83.5 84.6 79.2---
2024-07-22 07:50 pmSSE 9.7 11.7 2.3 95.7ENE30.04- 83.3 84.6 78.8---
2024-07-22 07:40 pmSSE 9.7 11.7----30.04- 83.5 84.7 79.2---
2024-07-22 07:10 pmSSE 9.7 11.7 2.3-5.6 E30.03- 83.7 84.7 78.8---
2024-07-22 07:00 pmSSE 9.7 11.7----30.03-0.02 83.3 84.9 78.3---
2024-07-22 06:50 pmSSE 11.7 13.6 2.6 95.7 E30.03- 83.7 84.9 78.1---
2024-07-22 06:40 pmSSE 9.7 15.5----30.03- 84.4 84.9 77.2---
2024-07-22 06:30 pmSSE 9.7 11.7----30.03- 84.7 84.9 77.0---
2024-07-22 06:20 pm SE 9.7 11.7 2.3 85.6 E30.04- 84.7 84.9 77.0---
2024-07-22 06:10 pm SE 7.8 9.7 2.3-5.6 E30.04- 84.7 84.9 77.5---
2024-07-22 06:00 pm SE 9.7 11.7----30.04-0.02 84.6 85.1 77.7---
2024-07-22 05:50 pm SE 7.8 9.7 2.6 95.6 E30.04- 84.6 85.1 77.9---
2024-07-22 05:40 pm SE 7.8 9.7----30.04- 84.6 85.1 77.9---
2024-07-22 05:30 pm SE 9.7 11.7----30.04- 84.4 85.1 77.5---
2024-07-22 05:20 pm SE 9.7 11.7 2.3 105.5 E30.04- 84.7 85.1 77.9---
2024-07-22 05:10 pm SE 9.7 11.7 2.3-5.5 E30.04- 84.7 85.1 77.4---
2024-07-22 05:00 pm SE 9.7 11.7----30.04-0.02 84.9 85.1 77.5---
2024-07-22 04:50 pmESE 7.8 9.7 2.6 85.9 E30.04- 84.7 85.3 77.0---
2024-07-22 04:40 pmESE 7.8 9.7----30.04- 84.6 85.1 77.0---
2024-07-22 04:30 pmESE 9.7 9.7----30.04- 84.6 85.1 77.4---
2024-07-22 04:20 pmESE 9.7 11.7 2.6 96.0 E30.04- 84.6 85.1 77.7---
2024-07-22 04:10 pmESE 9.7 11.7 2.6-6.0 E30.05- 84.7 85.3 77.7---
2024-07-22 04:00 pmESE 7.8 9.7----30.05-0.04 84.7 85.3 78.1---
2024-07-22 03:50 pmESE 7.8 9.7 3.0 105.9ESE30.05- 84.6 85.3 77.7---
2024-07-22 03:40 pmESE 7.8 9.7----30.05- 84.4 85.1 77.7---
2024-07-22 03:30 pm E 9.7 11.7----30.05- 84.6 85.3 78.3---
2024-07-22 03:20 pmESE 9.7 11.7 2.6 95.9 E30.06- 84.6 84.9 78.1---
2024-07-22 03:10 pmESE 9.7 9.7 2.6-5.9 E30.06- 84.9 84.9 78.4---
2024-07-22 03:00 pm E 9.7 11.7----30.06-0.03 84.9 85.1 77.9---
2024-07-22 02:50 pmESE 7.8 11.7 2.6 96.2 E30.06- 84.7 84.6 77.4---
2024-07-22 02:40 pm E 7.8 9.7----30.06- 84.7 85.3 77.4---
2024-07-22 02:30 pm E 7.8 9.7----30.06- 84.6 85.1 77.4---
2024-07-22 02:20 pm E 7.8 9.7 2.6 95.9ESE30.06- 84.4 84.2 77.5---
2024-07-22 02:10 pm E 7.8 9.7----30.06- 84.4 84.0 77.7---
2024-07-22 02:00 pmESE 5.8 9.7----30.06-0.03 84.4 84.2 77.7---
2024-07-22 01:50 pm SE 3.9 5.8 3.0 96.4 E30.07- 83.3 84.0 76.5---
2024-07-22 01:40 pmSSE 5.8 5.8----30.07- 82.6 84.0 75.9---
2024-07-22 01:30 pmSSE 7.8 9.7----30.07- 82.9 84.0 77.2---
2024-07-22 01:20 pmESE 5.8 9.7 2.6 106.1 E30.07- 84.4 84.0 78.3---
2024-07-22 01:10 pm E 3.9 3.9 2.6-6.1 E30.08- 84.4 84.0 78.3---
2024-07-22 01:00 pm E 1.9 3.9----30.08+0.00 84.2 84.0 77.9---
2024-07-22 12:50 pmENE 1.9 3.9 2.6 96.1ESE30.08- 84.2 84.0 78.1---
2024-07-22 12:40 pm N 1.9 3.9----30.09- 84.2 84.0 78.1---
2024-07-22 12:30 pmNNE 1.9 1.9----30.09- 84.2 84.0 78.1---
2024-07-22 12:20 pm- 0.0 1.9 2.6 85.9 E30.09- 84.0 84.0 78.1---
2024-07-22 12:10 pm- 0.0 1.9 2.6-5.9 E30.09- 83.7 84.0 77.9---
2024-07-22 12:00 pm- 0.0 1.9----30.09+0.01 83.5 84.0 77.9---
2024-07-22 11:50 amWNW 1.9 1.9 2.6 95.9 E30.09- 83.5 84.0 77.7---
2024-07-22 11:40 amWNW 1.9 3.9----30.09- 83.8 84.0 77.9---
2024-07-22 11:30 am- 0.0 1.9----30.09- 84.2 84.0 78.1---
2024-07-22 11:20 am- 0.0 1.9 2.3 95.6 E30.09- 84.0 84.0 78.1---
2024-07-22 11:10 am S 1.9 1.9 2.3-5.6 E30.09- 83.7 84.0 78.1---
2024-07-22 11:00 amSSW 1.9 1.9----30.09+0.04 83.5 84.0 77.9---
2024-07-22 10:50 amSSW 1.9 3.9 2.6 85.7 E30.09- 83.7 84.0 77.9---

Detailed Wave Summary
for 41009 as of (10:40 am EDT)
1440 GMT on 07/23/2024:

These wave data are displayed in rounded times.

     

Click on the graph icon in the table below to see a time series plot of the last five days of that observation.

5-day plot - Significant Wave Height Significant Wave Height (WVHT): 2.6 ft
5-day plot - Swell Height Swell Height (SwH): 2.3 ft
5-day plot - Swell Period Swell Period (SwP): 9.1 sec
5-day plot - Swell Direction Swell Direction (SwD): E
5-day plot - Wind Wave Height Wind Wave Height (WWH): 1.0 ft
5-day plot - Wind Wave Period Wind Wave Period (WWP): 4.0 sec
5-day plot - Wind Wave Direction Wind Wave Direction (WWD):SSE
5-day plot - Average Wave Period Average Wave Period (APD): 6.0 sec
Previous observations
TIME
(EDT)
5-day plot - Wave Height
WVHT
ft
5-day plot - Swell Height
SwH
ft
5-day plot - Swell Period
SwP
sec
5-day plot - Swell Direction
SwD
 
5-day plot - Wind Wave Height
WWH
ft
5-day plot - Wind Wave Period
WWP
sec
5-day plot - Wind Wave Direction
WWD
 
5-day plot - Wave Steepness
STEEPNESS
 
5-day plot - Average Wave Period
APD
sec
2024-07-23 10:10 am 2.3 2.3 9.1 E 1.0 3.6 SSE N/A 5.8
2024-07-23 09:40 am 2.3 2.0 9.1 E 1.0 3.6 SSE N/A 5.3
2024-07-23 09:10 am 2.6 2.3 9.1 E 1.0 3.7 SSE N/A 5.6
2024-07-23 08:40 am 2.3 2.0 9.1 E 1.0 3.6 SSE N/A 5.2
2024-07-23 08:10 am 2.3 2.0 9.1ENE 1.3 3.4 SSE N/A 4.9
2024-07-23 07:40 am 2.6 2.0 9.1 E 1.3 3.7 SSE N/A 5.0
2024-07-23 07:10 am 2.3 2.0 9.1 E 1.3 3.7 SSE N/A 4.9
2024-07-23 06:40 am 2.3 2.0 9.1 E 1.3 3.8 SSE N/A 4.6
2024-07-23 06:10 am 2.6 2.3 9.1ENE 1.3 3.7 SSE N/A 4.9
2024-07-23 05:40 am 2.6 2.0 9.1 E 1.6 3.8 SSE N/A 4.6
2024-07-23 05:10 am 2.6 2.0 8.3 E 1.3 3.6 SSE N/A 4.8
2024-07-23 04:40 am 3.0 2.3 9.1 E 1.6 3.7 SSE SWELL 4.9
2024-07-23 04:10 am 2.3 2.0 9.1 E 1.3 3.7 SSE N/A 4.7
2024-07-23 03:40 am 2.6 2.0 9.1 E 1.6 3.4 S SWELL 4.9
2024-07-23 03:10 am 2.6 2.0 9.1 E 1.6 3.4 S N/A 4.7
2024-07-23 02:40 am 2.3 2.0 7.7 E 1.6 3.3 S N/A 4.5
2024-07-23 02:10 am 2.6 2.0 9.1 E 1.6 5.3 E N/A 4.8
2024-07-23 01:40 am 2.6 2.3 9.1 E 1.3 5.3 E N/A 5.0
2024-07-23 01:10 am 2.6 2.3 10.0 E 1.3 3.1 SSE N/A 5.5
2024-07-23 12:40 am 2.6 2.3 9.1 E 1.3 2.9 SSE N/A 5.5
2024-07-23 12:10 am 2.3 2.0 9.1 E 1.0 5.0 E N/A 5.3
2024-07-22 11:40 pm 2.6 2.6 9.1 E 1.0 3.0 SSE SWELL 5.4
2024-07-22 11:10 pm 2.3 2.3 8.3ENE 1.0 3.0 SSE N/A 5.1
2024-07-22 10:40 pm 2.3 2.3 7.7 E 1.0 2.9 SSE N/A 5.2
2024-07-22 10:10 pm 2.3 2.3 9.1ENE 1.0 2.7 SSE N/A 5.0
2024-07-22 09:40 pm 2.3 2.0 9.1ENE 1.0 2.6 SSE N/A 5.0
2024-07-22 09:10 pm 2.3 2.0 9.1ENE 1.0 4.3 E N/A 5.1
2024-07-22 08:40 pm 2.6 2.3 9.1 E 1.0 4.3 E N/A 5.7
2024-07-22 08:10 pm 2.3 2.3 9.1ENE 1.0 4.2 E N/A 5.6
2024-07-22 07:40 pm 2.3 2.3 9.1ENE 1.0 4.3 E N/A 5.7
2024-07-22 07:10 pm 2.3 2.3 9.1 E 1.0 4.0 E N/A 5.6
2024-07-22 06:40 pm 2.6 2.3 9.1 E 1.0 4.8 E N/A 5.7
2024-07-22 06:10 pm 2.3 2.3 8.3 E 0.7 3.4 ENE N/A 5.6
2024-07-22 05:40 pm 2.6 2.3 9.1 E 1.0 3.7 E N/A 5.6
2024-07-22 05:10 pm 2.3 2.3 10.0 E 1.0 4.2 E N/A 5.5
2024-07-22 04:40 pm 2.6 2.6 8.3 E 0.7 3.6 ESE SWELL 5.9
2024-07-22 04:10 pm 2.6 2.6 9.1 E 1.0 4.5 E SWELL 6.0
2024-07-22 03:40 pm 3.0 2.6 10.0ESE 1.0 3.6 ESE SWELL 5.9
2024-07-22 03:10 pm 2.6 2.3 9.1 E 1.0 4.5 E SWELL 5.9
2024-07-22 02:40 pm 2.6 2.6 9.1 E 1.0 4.0 ESE SWELL 6.2
2024-07-22 02:10 pm 2.6 2.3 9.1ESE 1.0 3.7 ESE N/A 5.9
2024-07-22 01:40 pm 3.0 3.0 9.1 E 0.7 4.0 E SWELL 6.4
2024-07-22 01:10 pm 2.6 2.3 10.0 E 0.7 3.8 E N/A 6.1
2024-07-22 12:40 pm 2.6 2.3 9.1ESE 0.7 3.6 E N/A 6.1
2024-07-22 12:10 pm 2.6 2.6 8.3 E 1.0 3.8 E SWELL 5.9
2024-07-22 11:40 am 2.6 2.6 9.1 E 1.0 4.0 E N/A 5.9
2024-07-22 11:10 am 2.3 2.3 9.1 E 1.0 4.0 E N/A 5.6

Plot of wave energy versus frequency (and period)